RH
65 96 100 100 100 92 81 74 79 96 92 63 66 72 77 72 88 92 74 55 49 56 44 42 40 36 24 19 18 16 18 17 17 18 18 19 20 20 15 16 20 26 29 37
100 100 100 100 100 86 85 89 98 92 82 83 81 78 85 89 91 71 60 49 44 30 40 42 38 35 19 16 18 16 16 15 14 14 15 16 17 18 16 13 15 18 23 27
88 100 100 98 99 94 87 92 100 100 100 100 100 83 73 71 68 63 56 54 41 38 47 48 38 30 25 19 16 17 17 16 13 12 11 11 13 15 19 13 12 16 19 23
98 100 100 100 100 93 96 100 93 79 80 83 81 64 78 67 59 61 62 50 40 38 49 54 49 49 25 22 22 21 18 13 10 8 6 6 7 8 10 13 11 12 17 20
100 100 100 100 94 86 82 88 81 72 70 64 74 79 65 67 66 61 52 49 42 43 49 60 44 28 27 27 26 19 13 10 7 7 7 6 5 5 7 9 11 12 15 17
93 99 100 96 93 86 75 70 69 74 89 78 59 53 56 58 51 46 48 41 48 60 68 48 40 35 36 28 18 14 14 10 8 8 7 6 5 5 5 6 6 8 11 16
94 100 100 92 90 98 86 78 73 77 80 66 69 59 55 52 48 39 37 38 70 84 69 73 42 38 30 19 14 14 15 12 9 7 7 8 7 6 4 4 5 5 8 13
95 98 95 96 98 100 100 100 95 70 59 59 61 49 41 32 25 25 32 52 85 85 74 50 45 33 22 18 17 28 27 22 12 9 9 7 6 6 5 3 4 4 5 10
79 77 84 88 88 74 76 78 77 70 57 46 41 27 25 22 24 37 62 99 100 82 91 55 44 29 22 21 20 37 37 26 21 16 16 16 9 5 5 6 4 4 4 6
76 76 94 100 100 87 73 62 64 61 37 26 19 21 26 29 45 82 100 100 100 100 75 55 42 27 23 27 25 30 39 41 20 16 19 19 6 4 4 3 3 3 4 5
67 69 68 85 96 82 69 54 59 52 21 14 17 24 47 67 85 100 100 100 100 93 66 50 38 30 27 31 30 28 35 41 21 23 47 28 9 4 3 3 3 3 3 4
75 60 74 75 84 56 51 56 55 28 18 18 28 68 83 88 98 98 100 100 100 87 65 47 38 33 34 32 32 34 37 40 23 45 55 38 12 5 3 3 3 3 3 5
87 70 69 72 67 61 58 63 36 22 25 45 79 100 100 100 89 100 100 100 99 82 60 46 40 38 41 44 44 43 52 43 25 62 67 46 18 5 4 4 3 3 4 5
94 92 62 59 62 58 49 44 24 41 60 79 100 100 99 89 100 100 99 87 86 80 52 49 41 41 40 46 46 46 64 71 47 70 76 27 12 7 6 5 5 4 5 7
79 65 66 64 55 39 31 24 35 94 92 90 94 99 92 100 100 91 95 79 95 70 53 49 48 42 43 43 46 54 54 80 68 64 78 31 9 8 8 7 8 7 8 10
77 61 40 36 39 26 21 29 64 98 97 90 100 100 75 100 100 100 100 88 92 66 57 49 46 46 46 45 43 58 72 57 80 67 88 43 29 34 21 34 33 11 16 20
40 26 25 37 26 20 23 71 75 98 100 96 97 92 88 100 100 100 99 98 90 59 56 50 45 48 44 47 45 50 84 57 77 75 98 84 71 66 50 81 53 24 23 17
24 24 21 28 22 21 36 79 84 97 100 100 95 99 78 97 100 100 98 82 69 57 55 52 45 48 46 45 47 43 61 83 67 80 72 98 91 84 63 60 52 52 25 21
22 20 22 23 23 23 50 91 99 97 100 100 93 93 84 96 83 80 71 75 67 61 56 51 50 50 45 45 46 46 49 70 82 77 80 69 80 85 64 48 47 34 24 22
20 20 20 23 21 29 65 90 100 85 98 91 90 99 75 60 59 69 79 79 58 54 51 47 59 56 48 46 47 47 43 60 80 84 82 68 68 57 67 29 28 28 31 33
20 20 22 21 30 58 88 81 93 92 100 99 98 87 68 60 67 77 81 65 58 51 53 56 53 52 48 44 44 43 43 51 78 93 100 93 84 62 60 37 29 34 37 39
23 24 29 40 71 91 95 100 98 93 100 99 98 92 65 71 78 80 77 64 53 53 54 51 48 48 43 39 39 39 40 40 61 80 97 98 95 75 71 38 32 38 45 52
29 41 71 90 100 100 98 94 91 99 100 100 100 69 72 69 68 66 57 56 55 52 50 44 43 39 33 30 31 33 36 38 47 67 77 94 95 81 66 35 34 43 69 100
50 76 97 99 100 100 100 100 99 91 95 82 72 77 68 69 61 58 64 59 56 50 44 36 26 22 20 21 24 27 30 36 40 62 62 74 86 88 73 50 38 54 96 100
98 100 99 100 100 100 100 100 100 88 70 80 74 62 57 63 78 74 62 55 50 43 30 19 15 14 14 16 18 23 29 34 37 44 49 48 64 70 72 63 41 55 92 100
100 99 100 100 99 97 91 92 87 73 68 64 59 71 89 88 70 62 57 50 40 25 15 12 12 12 13 15 18 22 27 33 35 37 43 46 48 50 52 62 67 43 79 100
Wind_Speed
71 76 86 87 85 82 81 81 81 83 84 82 80 77 78 80 82 84 88 92 92 89 83 81 79 76 78 78 80 81 81 83 87 89 90 93 92 89 81 78 84 88 87 84
77 82 86 85 84 83 83 81 80 81 84 84 83 83 83 84 88 91 94 97 94 87 83 82 80 81 79 79 78 77 77 76 77 79 81 84 87 89 84 76 73 81 89 87
90 90 91 91 87 86 85 82 83 81 84 87 90 88 90 92 94 96 99 98 96 90 85 85 85 82 80 74 71 70 70 71 74 74 74 78 82 89 90 83 74 76 80 86
92 96 98 93 90 89 85 88 88 88 90 93 95 93 94 97 99 101 100 99 93 89 87 86 87 88 77 69 66 66 68 68 68 68 65 63 66 72 79 83 79 73 77 81
95 95 94 91 92 93 92 93 95 94 94 95 97 104 96 102 102 101 99 91 89 84 83 85 85 76 67 65 64 66 62 62 62 60 59 57 55 61 67 68 75 74 75 79
91 91 90 91 93 94 94 95 94 94 98 100 102 106 101 103 99 93 90 85 79 72 76 77 73 63 63 62 61 57 56 58 57 52 55 52 51 53 57 61 67 71 71 80
91 92 94 93 93 98 98 99 100 103 105 105 104 105 100 94 87 85 79 71 63 61 61 63 60 58 58 58 52 46 52 52 51 47 48 48 51 50 49 55 62 67 68 76
89 90 96 95 95 96 101 105 108 107 105 106 104 95 91 86 79 70 61 52 46 49 53 56 55 53 53 51 45 41 46 46 47 43 41 43 47 48 48 46 56 62 68 75
94 89 95 98 100 101 102 106 106 106 100 93 87 79 69 66 61 49 38 34 38 43 53 52 52 52 48 45 41 35 36 38 44 37 39 40 42 39 39 45 53 61 62 70
97 93 95 100 104 106 104 97 97 92 90 79 67 60 56 54 41 25 25 28 35 45 52 47 50 49 44 41 42 33 34 37 41 33 36 38 34 21 39 45 50 54 56 67
101 95 91 100 107 104 96 80 81 84 70 55 50 46 43 39 24 22 22 30 38 45 48 43 47 43 39 39 40 35 30 34 33 26 30 36 28 24 32 38 41 42 49 61
98 91 86 84 90 79 75 76 82 65 52 45 39 31 35 31 24 19 24 33 36 41 47 40 44 38 37 39 37 34 27 28 27 21 31 32 24 20 22 31 35 41 48 59
94 92 88 87 89 84 81 79 64 53 42 37 31 33 35 27 21 20 28 32 36 42 44 37 40 37 34 38 36 30 30 27 24 21 25 28 25 17 17 22 31 40 50 59
95 95 90 89 88 87 74 61 51 42 35 31 29 35 30 22 19 27 28 32 39 43 42 38 36 36 33 33 35 30 27 29 23 21 21 24 22 15 17 20 25 35 45 59
95 91 97 89 81 69 53 48 42 38 37 31 36 33 30 18 25 31 29 35 40 43 42 39 36 35 35 31 32 30 20 18 24 20 18 17 19 20 22 26 31 39 43 58
95 90 75 68 56 47 42 41 41 43 42 34 35 35 30 20 24 30 34 38 43 44 44 42 36 35 35 32 31 27 27 17 21 12 14 14 15 20 28 24 30 44 53 72
80 63 52 38 48 39 32 43 41 43 41 36 39 33 26 20 23 30 34 38 45 46 45 45 40 38 38 37 31 28 25 25 17 16 13 17 23 27 33 39 43 52 58 78
57 49 39 35 46 34 36 41 43 41 41 38 39 34 30 24 28 31 36 42 47 47 46 48 45 43 42 43 38 30 26 26 24 15 12 26 25 31 34 40 52 61 73 81
48 42 38 36 42 35 35 42 46 39 42 41 40 36 33 33 34 36 40 44 47 48 48 50 50 49 47 47 43 36 31 26 26 22 17 18 35 36 37 44 58 66 74 82
43 42 37 37 36 33 35 40 43 39 41 37 39 38 41 42 41 42 45 50 50 50 51 53 55 55 54 51 48 38 35 31 27 26 23 17 20 30 40 47 56 67 76 81
40 37 32 32 28 31 37 36 40 38 36 37 39 42 45 43 44 46 51 54 54 54 57 57 57 59 58 55 48 40 37 35 32 28 24 22 21 27 37 48 57 69 75 82
30 28 29 28 26 28 27 29 34 33 36 40 41 44 46 46 47 51 55 58 59 60 60 61 64 64 60 52 45 41 39 39 37 35 32 29 27 29 37 50 60 72 76 86
24 26 25 26 24 25 27 29 30 33 39 40 44 47 48 49 52 55 59 63 64 65 67 68 65 59 52 47 43 42 41 42 41 40 39 35 33 36 42 54 65 69 75 83
25 24 24 22 28 29 26 28 34 38 40 43 44 47 50 52 55 59 64 67 69 73 73 65 57 51 47 45 43 43 43 44 47 47 45 44 42 41 46 56 68 75 81 84
23 22 22 22 24 30 31 34 38 42 42 43 47 48 49 54 60 65 67 70 76 73 66 58 52 47 44 44 44 44 45 47 49 52 51 51 51 49 50 59 71 82 88 94
28 26 21 23 31 37 39 40 44 43 45 46 46 49 55 61 65 68 72 75 71 63 58 50 45 42 41 42 44 45 47 49 50 53 55 57 58 59 60 62 69 83 92 98
Wind_Direction
281 280 280 287 289 290 291 291 290 290 291 293 294 295 298 300 301 301 301 303 301 299 299 297 294 293 285 280 277 275 272 269 266 266 266 265 265 263 260 252 246 242 244 244
280 283 282 285 288 288 287 286 288 288 290 293 293 295 297 298 299 299 299 300 299 300 298 296 294 291 286 284 284 280 277 274 270 266 264 261 262 262 260 254 244 241 239 240
284 286 286 286 288 288 287 288 287 288 289 291 291 293 295 296 297 298 298 297 298 298 297 295 294 293 290 291 285 282 281 278 275 270 265 262 258 256 255 256 247 236 234 232
283 285 286 286 285 286 288 285 285 286 287 289 292 293 294 296 297 296 295 295 294 293 294 293 294 293 295 290 287 288 287 283 279 275 270 264 258 255 253 251 250 240 232 229
283 283 283 284 284 286 286 286 288 289 289 289 292 293 294 297 297 294 294 293 292 290 290 290 290 293 293 291 293 291 287 282 280 280 277 270 261 253 250 245 245 244 234 226
280 283 283 285 286 286 288 288 289 289 289 291 292 294 296 295 291 290 289 290 288 287 288 290 291 294 292 293 291 290 286 282 281 280 276 272 266 259 250 244 237 235 232 224
282 282 283 285 287 287 288 289 290 290 291 293 293 294 293 288 287 287 285 285 284 285 285 286 293 294 296 294 292 291 286 289 289 282 278 276 271 265 253 241 237 231 223 218
280 281 283 285 284 283 285 286 287 289 293 292 293 291 288 285 282 280 279 280 279 280 286 293 297 299 297 294 296 292 291 289 289 290 284 274 273 267 261 248 238 231 222 213
281 283 283 283 282 284 285 285 288 295 293 291 287 287 281 278 277 276 273 269 278 286 294 299 302 302 298 294 295 288 292 292 291 295 289 288 279 266 248 240 233 230 225 212
286 286 285 283 283 284 288 290 292 295 292 287 282 275 273 274 272 266 264 279 288 293 294 303 303 300 297 293 294 289 293 298 293 291 286 288 293 273 238 238 234 227 218 210
286 287 287 283 283 285 290 294 297 296 290 283 276 273 265 261 252 250 270 284 290 292 297 305 305 302 302 294 295 302 300 305 295 292 297 291 291 277 237 233 231 224 216 207
283 288 290 285 285 291 293 296 299 288 282 283 276 263 244 240 233 254 279 281 289 294 300 308 307 309 300 298 300 305 311 312 294 301 298 292 289 284 243 232 218 207 205 199
284 288 287 287 288 292 297 296 288 280 281 273 267 234 234 231 242 267 271 281 289 295 300 310 313 316 306 295 301 308 316 317 300 314 295 284 293 280 248 226 218 207 197 194
282 284 286 289 289 291 292 287 278 277 268 254 230 219 229 232 253 264 274 278 289 298 301 313 319 318 314 295 296 306 314 325 304 312 286 280 270 233 216 205 194 198 192 188
283 284 288 286 287 287 283 273 268 254 246 235 223 224 231 240 262 266 280 284 293 297 303 314 320 326 321 303 293 299 303 318 305 308 280 257 235 205 191 183 177 184 181 181
284 286 283 284 278 275 271 264 252 245 242 228 224 232 236 242 267 274 277 284 291 295 303 312 316 325 324 314 294 292 296 320 317 311 251 242 205 178 166 160 173 174 177 183
282 282 278 269 268 267 268 245 247 241 235 227 231 234 240 252 271 277 281 284 288 292 301 309 314 320 325 320 305 284 286 294 314 303 217 208 186 188 180 171 186 174 185 186
277 272 267 260 266 268 250 242 242 234 228 232 234 239 247 261 270 275 279 282 288 293 299 306 312 315 319 319 310 287 275 283 291 299 271 211 215 207 200 188 184 180 188 187
270 267 260 260 263 262 245 236 237 228 227 234 237 247 252 254 265 274 284 289 291 294 299 305 309 310 314 313 310 293 269 269 278 286 283 238 220 227 213 202 189 187 186 187
264 259 260 257 260 261 237 230 234 233 231 240 243 251 259 267 272 280 289 290 293 295 300 305 305 308 308 306 303 289 268 258 262 274 279 259 234 227 224 200 192 188 188 189
256 258 258 261 262 242 237 235 230 224 233 241 251 259 267 272 279 286 290 292 295 299 301 303 304 303 302 298 292 279 263 250 250 253 258 263 245 226 222 211 196 192 193 194
253 253 256 259 246 230 232 221 220 231 241 252 261 268 274 279 286 290 291 292 296 299 300 302 301 299 295 288 280 270 259 248 242 242 244 247 243 227 218 216 204 198 195 195
244 247 249 244 211 212 213 224 235 243 249 258 266 273 277 284 288 290 292 295 297 299 300 300 297 292 284 277 269 263 255 246 239 237 237 238 242 232 216 213 210 206 204 202
237 232 222 221 219 218 226 231 239 247 255 265 272 277 284 286 289 293 294 297 299 301 299 297 291 283 275 267 262 257 252 246 239 236 236 236 235 234 226 214 211 211 211 212
213 215 224 232 230 231 241 248 253 259 265 275 281 282 287 290 292 294 296 298 300 300 297 292 285 277 268 260 255 251 249 246 240 236 236 235 234 235 230 222 217 213 215 216
205 213 214 234 240 241 246 256 261 266 276 279 285 292 293 293 293 296 298 300 300 297 293 287 280 272 262 254 249 246 246 246 245 241 237 236 237 236 232 228 224 223 222 222